Regional Weather Roundup
Issued by NWS

Home | Current Version | Previous Version | Text Only | Print | Product List | Glossary On
Versions: 1 2 3 4 5 6 7 8 9 10 11 12 13 14 15 16 17 18 19 20 21 22 23 24 25 26 27 28 29 30 31 32 33 34 35 36 37 38 39 40 41 42 43 44 45 46 47 48 49 50
000
ASUS43 KMKX 030821
RWRWI

WISCONSIN REGIONAL WEATHER ROUNDUP
NATIONAL WEATHER SERVICE MILWAUKEE/SULLIVAN WI
300 AM CDT SUN MAY 03 2015

NOTE: "FAIR" INDICATES FEW OR NO CLOUDS BELOW 12,000 FEET WITH NO
SIGNIFICANT WEATHER AND/OR OBSTRUCTIONS TO VISIBILITY.

WIZ001-002-006>008-014>016-023>028-030900-
NORTHWEST WISCONSIN

CITY           SKY/WX    TMP DP  RH WIND       PRES   REMARKS
SUPERIOR ARPT  CLOUDY    42  39  91 NE3       29.70R
ASHLAND        CLOUDY    65  49  56 SW13      29.72S
HAYWARD        MOCLDY    64  50  60 SW14G24   29.76S
SIREN          PTCLDY    63  51  63 S14       29.73F
CUMBERLAND     PTCLDY    59  48  67 SW9       29.79R
RICE LAKE      PTCLDY    60  49  65 S13       29.79F
CHETEK         PTCLDY    60  50  69 S8        29.79F
LADYSMITH      PTCLDY    59  50  72 S7        29.82F
EAU CLAIRE     CLEAR     61  48  62 S14       29.80F
MENOMONIE      CLEAR     62  49  62 S12       29.80F
NEW RICHMOND   CLEAR     60  49  67 S13G18    29.77F
OSCEOLA        CLEAR     61  51  70 S6        29.79S
$$

WIZ003>005-009-010-017-018-030900-
NORTH CENTRAL WISCONSIN

CITY           SKY/WX    TMP DP  RH WIND       PRES   REMARKS
MANITOWISH WTR CLOUDY    60  49  68 SW10      29.79F
ARBOR VITAE    MOCLDY    59  50  70 S6        29.81S
WOODRUFF       MOCLDY    59  50  70 S6        29.81S
RHINELANDER    MOCLDY    60  48  64 SW12      29.84S
EAGLE RIVER    MOCLDY    60  46  59 SW9       29.82S
LAND O LAKES   MOCLDY    58  46  65 SW5       29.82S
PHILLIPS       PTCLDY    60  49  69 SW9G16    29.80F
TOMAHAWK       PTCLDY    57  48  71 CALM      29.84S
MEDFORD        CLEAR     57  48  73 S10       29.83F
MERRILL        CLEAR     59  49  70 SW7       29.84F
$$

WIZ029-030-035-036-043>047-030900-
CENTRAL WISCONSIN

CITY           SKY/WX    TMP DP  RH WIND       PRES   REMARKS
WAUSAU         FAIR      58  49  72 SW6       29.84S
MOSINEE        CLEAR     54  46  76 S8        29.87S
MARSHFIELD     CLEAR     57  48  72 SW7       29.85F
STEVENS POINT  CLEAR     54  45  71 SW5       29.87F
WAUPACA        CLEAR     55  43  63 S5        29.88F
WAUTOMA        CLEAR     48  42  80 CALM      29.90F
WISC RAPIDS    CLEAR     56  47  71 SW7       29.88F
CAMP DOUGLAS   CLEAR     60  53  77 S12G17    29.86F
$$

WIZ011>013-019>022-031-037>040-048>050-030900-
NORTHEAST WISCONSIN

CITY           SKY/WX    TMP DP  RH WIND       PRES   REMARKS
ANTIGO         CLEAR     55  46  74 SW8       29.86F
SHAWANO        CLEAR     58  44  58 CALM      29.87S
OCONTO         CLEAR     57  44  61 CALM      29.86S
STURGEON BAY   CLEAR     57  43  58 S7        29.89S
GREEN BAY      CLEAR     55  45  68 S5        29.88F
MANITOWOC      CLEAR     46  42  86 CALM      29.90S
APPLETON       CLEAR     59  43  55 SW10      29.89F
CLINTONVILLE   CLEAR     54  43  66 S3        29.86F
OSHKOSH        CLEAR     57  44  62 SW7       29.90R
$$

WIZ032>034-041-042-053>061-030900-
SOUTHWEST WISCONSIN

CITY           SKY/WX    TMP DP  RH WIND       PRES   REMARKS
LA CROSSE      CLEAR     61  52  72 S7        29.84F
SPARTA         CLEAR     55  46  73 CALM      29.87F
VIROQUA        CLEAR     56  50  79 S8        29.88F
BOSCOBEL       CLEAR     53  48  83 CALM      29.89F
PRAIRIE DU CHI CLOUDY    60  49  67 E5        29.88S
PLATTEVILLE    PTCLDY    57  50  79 S7        29.91F
$$

WIZ056-057-062-063-064-067-068-030900-
SOUTH CENTRAL WISCONSIN

CITY           SKY/WX    TMP DP  RH WIND       PRES   REMARKS
REEDSBURG      PTCLDY    57  49  77 CALM      29.89F
BARABOO/DELLS  NOT AVBL
LONE ROCK      MOCLDY    59  49  69 E3        29.90F
MINERAL POINT  PTCLDY    55  50  82 S6        29.91F
MADISON        MOCLDY    61  49  64 SW5       29.92F
MIDDLETON      CLOUDY    61  47  59 SW3       29.92F
WATERTOWN      PTCLDY    55  44  67 CALM      29.92F
MONROE         MOCLDY    55  48  76 S9        29.93F
JANESVILLE     CLOUDY    59  43  55 SW3       29.93F
$$

WIZ051-052-058>065-066-070>072-030900-
SOUTHEAST WISCONSIN

CITY           SKY/WX    TMP DP  RH WIND       PRES   REMARKS
MILWAUKEE      PTCLDY    60  39  45 SW7       29.94S
WAUKESHA       PTCLDY    55  39  54 S5        29.95S
MILWAUKEE/TIMM PTCLDY    57  37  47 S6        29.95S
RACINE         PTCLDY    59  39  47 SW6       29.96R
BURLINGTON     CLOUDY    50  41  71 CALM      29.95S
KENOSHA        PTCLDY    59  41  51 SW6       29.95S
FOND DU LAC    CLEAR     59  44  57 S8        29.91R
SHEBOYGAN      CLEAR     52  41  66 SW3       29.91S
WEST BEND      CLEAR     55  41  58 SW6       29.93S
JUNEAU         MOCLDY    54  46  74 S8        29.93F
$$

LSZ147-162-030900-
LAKE SUPERIOR

STATION/POSITION TIME  TEMP    WIND        PRES    WAVE
                       AIR SEA DIR/SP/G            HT/PER
                 (UTC) (F)     (DEG/KT/KT) (MB)    (FT/S)
W MID LAKE BUOY  0750   47 35  190/ 10/ 12 1006.0F   0
DEVILS ISLAND    0800   51     280/  3/  4 1005.9S
PORT WING        0740   40      10/  3/  4 1006.4S
SAXON HARBOR     0700   67     190/  8/ 17 1006.1F
$$

LMZ867-665-643>646-030900-
LAKE MICHIGAN

STATION/POSITION TIME  TEMP    WIND        PRES    WAVE
                       AIR SEA DIR/SP/G            HT/PER
                 (UTC) (F)     (DEG/KT/KT) (MB)    (FT/S)
CHAMBERS ISLAND  0700   59     180/  7/ 11 1011.2S
NORTHPORT PIER   0700   54     160/  3/  7 1011.2R
SISTER BAY       0632   58     190/ 11/ 12   N/A
KEWAUNEE LAKESHO 0700   49     190/  2/  6 1011.5R
SHEBOYGAN LAKESH 0800   54     180/  6/  6 1013.1F
PORT WASHINGTON  0700   50     180/  3/  4 1013.9
ATWATER BUOY     0800   59     230/ 10/ 10 1015.0R
MILWAUKEE LAKESH 0800   63     230/  9/ 11   N/A
KENOSHA   LAKESH 0800   63     230/  9/ 12 1014.2S
$$

TC  - TEMPERATURE IN CELSIUS
VSB - VISIBILITY IN STATUTE MILES
WCI - WIND CHILL INDEX
HX  - HEAT INDEX



USA.gov is the U.S. government's official web portal to all federal, state and local government web resources and services.